Starlink 5657

operational
NORAD ID: 55342 Int'l Des: 2023-013 Owner: SPXS Country: US Constellation: starlink
LEOCIRCULAR

Über Starlink 5657

Beschreibung wird geladen...

Live-Position

3D-Globus wird geladen...

Nächste Überflüge

Höhenverlauf

Altitude vs Time

uPlot chart will show altitude changes over time

Zweizeiliger Elementsatz

1 55342U 23013M 25258.49360386 .00000260 00000-0 34344-4 0 9999
2 55342 43.0050 172.4465 0001170 269.3225 90.7484 15.02534165145352
Epoch: 15. Sept. 2025 • Age: 11 hours

Aktueller Status

Höhe 564.8 km
Geschwindigkeit 7.58 km/s
Subsatellitenpunkt -25.38°S, 161.77°E
Startdatum 26. Jan. 2023
Alter 2.6 years
Typ internet

Technische Details

Klassifizierung Payload
Masse 305.00 kg
Trockenmasse 290.00 kg
Gesamtmasse 305.00 kg
Länge 0.20 m
Durchmesser 2.80 m
Spannweite 9.00 m
Form Box + pan
Hersteller SPXS
Bus-Typ Starlink
Phasenstatus In Orbit
Besitzer/Staat SPXS/US

Große Konstellationen

Loading constellations...